Regional Weather Roundup
Issued by NWS

Home | Current Version | Previous Version | Graphics & Text | Print | Product List | Glossary On
Versions: 1 2 3 4 5 6 7 8 9 10 11 12 13 14 15 16 17 18 19 20 21 22 23 24 25 26 27 28 29 30 31 32 33 34 35 36 37 38 39 40 41 42 43 44 45 46 47 48 49 50
000
ASUS45 KABQ 170801
RWRNM
NEW MEXICO REGIONAL WEATHER ROUNDUP
NATIONAL WEATHER SERVICE ALBUQUERQUE NM
100 AM MST TUE JAN 17 2017

NOTE: "FAIR" MEANS FEW OR NO CLOUDS BELOW 12,000 FEET AGL WITH NO
       SIGNIFICANT WEATHER OR OBSTRUCTIONS TO VISION.

      THIS PRODUCT IS RELEASED AS TWO VERSIONS.  ONE VERSION NEAR
      THE TOP OF THE HOUR CONTAINING PRELIMINARY DATA FROM ALBUQUERQUE
      AND OTHER STATIONS.  A FINAL VERSION WITH ADDITIONAL DATA IS
      ISSUED ABOUT 10 MINUTES AFTER THE HOUR.

NMZ501-503-504-510>518-170900-
NORTHWEST PLATEAU/NORTHCENTRAL MOUNTAINS

CITY           SKY/WX    TMP DP  RH WIND       PRES   REMARKS
FARMINGTON     CLOUDY    33  31  92 NE3       30.10S
LOS ALAMOS     CLOUDY    32  32 100 SW6       30.12S WCI  26
SANTA FE       CLOUDY    33  32  96 S7        30.11S WCI  27
TAOS           CLOUDY    30  25  80 CALM      30.11S
ANGEL FIRE     LGT SNOW  25  24  95 N3        30.11S

$$
NMZ402-403-502-505>509-170900-
WESTCENTRAL MOUNTAINS/SOUTHWEST MOUNTAINS

CITY           SKY/WX    TMP DP  RH WIND       PRES   REMARKS
GALLUP         FLURRIES  32  31  96 CALM      30.10R
GRANTS         CLOUDY    34  33  97 CALM      30.11S
SILVER CITY    FAIR      30  29  95 NW5       30.07S WCI  26

$$
NMZ407-409-411-412-170900-
SOUTHERN DESERTS

CITY           SKY/WX    TMP DP  RH WIND       PRES   REMARKS
DEMING         FAIR      37  36  96 NE6       30.06F WCI  32
LAS CRUCES     FAIR      36  34  94 NE3       30.08S
HOLLOMAN AFB   FAIR      40  37  89 CALM      30.11S
ALAMOGORDO     FAIR      37  34  87 CALM      30.08F
T OR C         FAIR      38  36  92 W5        30.07S WCI  34

$$
NMZ519>523-170900-
CENTRAL VALLEYS/CENTRAL HIGHLANDS

CITY           SKY/WX    TMP DP  RH WIND       PRES   REMARKS
ALBUQUERQUE    CLOUDY    40  35  83 E10       30.10F WCI  33
DOUBLE EAGLE   CLOUDY    35  34  96 CALM      30.11S
MORIARTY ARPT  CLOUDY    33  32  94 CALM      30.14S
CLINES CORNERS NOT AVBL
BELEN          CLOUDY    40  37  87 E5        30.10R
SOCORRO        FAIR      37  36  94 SW3       30.09S

$$
NMZ524>526-539-540-170900-
SOUTHCENTRAL MOUNTAINS

CITY           SKY/WX    TMP DP  RH WIND       PRES   REMARKS
RUIDOSO        CLOUDY    34  34 100 SE7       30.13S WCI  28

$$
NMZ527>531-170900-
NORTHEAST HIGHLANDS/NORTHEAST PLAINS

CITY           SKY/WX    TMP DP  RH WIND       PRES   REMARKS
LAS VEGAS      CLOUDY    28  26  92 CALM      30.12F
RATON          CLOUDY    29  24  82 CALM      30.11F
CLAYTON        MOCLDY    32  32 100 NW8       30.11F WCI  25

$$
NMZ532>537-170900-
EASTCENTRAL PLAINS

CITY           SKY/WX    TMP DP  RH WIND       PRES   REMARKS
TUCUMCARI      CLOUDY    39  32  76 E5        30.15R
CANNON AFB     CLOUDY    34  34 100 NE6       30.14R WCI  29
CLOVIS AIRPORT MOCLDY    30  27  86 NE7       30.14R WCI  23

$$
NMZ028-029-538-170900-
SOUTHEAST PLAINS

CITY           SKY/WX    TMP DP  RH WIND       PRES   REMARKS
ROSWELL        CLOUDY    42  34  73 NE9       30.13S
ARTESIA        FAIR      37  37 100 N12       30.13R WCI  30
CARLSBAD       FAIR      41  38  89 NE6       30.10R


$$



USA.gov is the U.S. government's official web portal to all federal, state and local government web resources and services.